Weather History for Willmar, MN

Change the Weather History Date:

Saturday, June 15, 2013

  Actual Average (KLJF) Record (KLJF)
Temperature  
Mean Temperature 74 °F -  
Max Temperature 82 °F 78 °F 94 °F (1979)
Min Temperature 66 °F 56 °F 40 °F (1968)
Cooling Degree Days 9    
Growing Degree Days 24 (Base 50)    
Moisture  
Dew Point 53 °F    
Average Humidity 53    
Maximum Humidity 88    
Minimum Humidity 20    
Precipitation  
Precipitation 0.00 in - - ()
Sea Level Pressure  
Sea Level Pressure 29.90 in    
Wind  
Wind Speed 8 mph (NW)    
Max Wind Speed 14 mph    
Max Gust Speed 18 mph    
Visibility 9 miles    
Events Rain    
Averages and records for this station are not official NWS values.
T = Trace of Precipitation, MM = Missing Value Source: NWS Daily Summary

Daily Weather History Graph

Daily Weather History Graph

Search for Another Location

Airport:

Trip Planner

Search our weather history database for the weather conditions in past years. The results will help you decide how hot, cold, wet, or windy it might be!

Date:

Astronomy

Jun. 15, 2013 Rise Set
Actual Time 5:32 AM CDT 9:09 PM CDT
Civil Twilight 4:55 AM CDT 9:47 PM CDT
Nautical Twilight 4:05 AM CDT 10:37 PM CDT
Astronomical Twilight 2:59 AM CDT 11:43 PM CDT
Moon 12:25 PM CDT (6/15) 12:30 AM CDT (6/15)
Length of Visible Light 16h 51m
Length of Day
15h 36m
Waxing Crescent, 40% of the Moon is Illuminated
Jun 15
Waxing Crescent
Jun 16
First Quarter
Jun 23
Full
Jun 29
Last Quarter
Jul 8
New

Hourly Weather History & Observations

Time (CDT) Temp. Dew Point Humidity Pressure Visibility Wind Dir Wind Speed Gust Speed Precip Events Conditions
12:15 AM 71.6 °F 62.6 °F 73% 29.87 in 10.0 mi ESE 10.4 mph - N/A   Overcast
12:35 AM 71.6 °F 60.8 °F 69% 29.87 in 10.0 mi SE 13.8 mph - N/A   Overcast
12:55 AM 71.6 °F 60.8 °F 69% 29.88 in 10.0 mi SE 12.7 mph - N/A   Mostly Cloudy
1:15 AM 71.6 °F 60.8 °F 69% 29.88 in 10.0 mi SSE 11.5 mph - N/A   Scattered Clouds
1:35 AM 71.6 °F 60.8 °F 69% 29.88 in 10.0 mi SSE 9.2 mph - N/A   Scattered Clouds
1:55 AM 69.8 °F 60.8 °F 73% 29.88 in 10.0 mi SSE 6.9 mph - N/A   Clear
2:15 AM 69.8 °F 60.8 °F 73% 29.88 in 10.0 mi SSE 8.1 mph - N/A   Clear
2:35 AM 69.8 °F 60.8 °F 73% 29.87 in 10.0 mi SSE 6.9 mph - N/A   Clear
2:55 AM 69.8 °F 60.8 °F 73% 29.87 in 10.0 mi SSE 5.8 mph - N/A   Clear
3:15 AM 68.0 °F 60.8 °F 78% 29.87 in 10.0 mi SE 6.9 mph - N/A   Clear
3:35 AM 68.0 °F 62.6 °F 83% 29.88 in 10.0 mi SSE 5.8 mph - N/A   Clear
3:55 AM 68.0 °F 62.6 °F 83% 29.88 in 10.0 mi SSE 4.6 mph - N/A   Clear
4:15 AM 66.2 °F 62.6 °F 88% 29.87 in 10.0 mi SE 5.8 mph - N/A   Clear
4:35 AM 66.2 °F 62.6 °F 88% 29.87 in 10.0 mi SSE 3.5 mph - N/A   Clear
4:55 AM 66.2 °F 62.6 °F 88% 29.87 in 7.0 mi SSE 3.5 mph - N/A   Clear
5:15 AM 66.2 °F 62.6 °F 88% 29.86 in 7.0 mi ESE 5.8 mph - N/A   Clear
5:35 AM 66.2 °F 62.6 °F 88% 29.87 in 7.0 mi Calm Calm - N/A   Clear
5:55 AM 66.2 °F 62.6 °F 88% 29.88 in 5.0 mi Calm Calm - N/A   Clear
6:15 AM 66.2 °F 62.6 °F 88% 29.88 in 5.0 mi Calm Calm - N/A   Clear
6:35 AM 66.2 °F 62.6 °F 88% 29.89 in 5.0 mi Calm Calm - N/A   Clear
6:55 AM 68.0 °F 64.4 °F 88% 29.90 in 5.0 mi WSW 3.5 mph - N/A   Clear
7:16 AM 69.8 °F 64.4 °F 83% 29.90 in 7.0 mi WNW 5.8 mph - N/A   Clear
7:35 AM 69.8 °F 64.4 °F 83% 29.89 in 7.0 mi NW 9.2 mph - N/A   Clear
7:55 AM 69.8 °F 64.4 °F 83% 29.90 in 7.0 mi NNW 6.9 mph - N/A   Clear
8:16 AM 69.8 °F 64.4 °F 83% 29.90 in 10.0 mi NW 6.9 mph - N/A   Clear
8:35 AM 71.6 °F 64.4 °F 78% 29.91 in 10.0 mi NNW 4.6 mph - N/A   Clear
8:55 AM 71.6 °F 64.4 °F 78% 29.92 in 10.0 mi NNW 5.8 mph - N/A   Clear
9:16 AM 73.4 °F 64.4 °F 73% 29.92 in 10.0 mi NNW 10.4 mph - N/A   Clear
9:35 AM 73.4 °F 64.4 °F 73% 29.92 in 10.0 mi NNW 11.5 mph - N/A   Scattered Clouds
9:55 AM 73.4 °F 64.4 °F 73% 29.93 in 10.0 mi NNW 10.4 mph - N/A   Scattered Clouds
10:15 AM 75.2 °F 59.0 °F 57% 29.93 in 10.0 mi North 13.8 mph 18.4 mph N/A   Scattered Clouds
10:35 AM 75.2 °F 55.4 °F 50% 29.94 in 10.0 mi North 10.4 mph 17.3 mph N/A   Clear
10:55 AM 75.2 °F 53.6 °F 47% 29.93 in 10.0 mi North 11.5 mph 18.4 mph N/A   Clear
11:14 AM 75.2 °F 53.6 °F 47% 29.94 in 10.0 mi North 11.5 mph - N/A   Clear
11:35 AM 75.2 °F 51.8 °F 44% 29.93 in 10.0 mi North 8.1 mph - N/A   Clear
11:55 AM 75.2 °F 51.8 °F 44% 29.92 in 10.0 mi NNE 8.1 mph - N/A   Clear
12:15 PM 75.2 °F 51.8 °F 44% 29.92 in 10.0 mi NNE 6.9 mph - N/A   Clear
12:35 PM 75.2 °F 53.6 °F 47% 29.93 in 10.0 mi NNE 5.8 mph - N/A   Clear
12:55 PM 75.2 °F 55.4 °F 50% 29.92 in 10.0 mi NNW 9.2 mph - N/A Rain Light Rain
1:15 PM 75.2 °F 51.8 °F 44% 29.91 in 10.0 mi North 10.4 mph - N/A   Clear
1:35 PM 78.8 °F 53.6 °F 42% 29.93 in 10.0 mi NW 6.9 mph - N/A   Clear
1:55 PM 78.8 °F 50.0 °F 36% 29.94 in 10.0 mi NW 5.8 mph - N/A   Clear
2:15 PM 78.8 °F 46.4 °F 32% 29.94 in 10.0 mi NNE 5.8 mph - N/A   Clear
2:35 PM 78.8 °F 48.2 °F 34% 29.94 in 10.0 mi NE 4.6 mph - N/A   Clear
2:55 PM 80.6 °F 48.2 °F 32% 29.94 in 10.0 mi NNW 8.1 mph - N/A   Clear
3:15 PM 82.4 °F 46.4 °F 28% 29.93 in 10.0 mi NNW 11.5 mph - N/A   Clear
3:36 PM 80.6 °F 42.8 °F 26% 29.92 in 10.0 mi NNW 6.9 mph - N/A   Clear
3:55 PM 82.4 °F 39.2 °F 21% 29.92 in 10.0 mi North 6.9 mph - N/A   Clear
4:15 PM 82.4 °F 39.2 °F 21% 29.91 in 10.0 mi NW 6.9 mph - N/A   Clear
4:35 PM 82.4 °F 39.2 °F 21% 29.91 in 10.0 mi NW 4.6 mph - N/A   Clear
4:55 PM 82.4 °F 42.8 °F 25% 29.90 in 10.0 mi North 4.6 mph - N/A   Clear
5:16 PM 82.4 °F 37.4 °F 20% 29.90 in 10.0 mi NW 8.1 mph - N/A   Clear
5:35 PM 82.4 °F 39.2 °F 21% 29.89 in 10.0 mi NW 9.2 mph - N/A   Clear
5:55 PM 82.4 °F 39.2 °F 21% 29.89 in 10.0 mi NW 8.1 mph - N/A   Clear
6:15 PM 82.4 °F 39.2 °F 21% 29.88 in 10.0 mi NW 3.5 mph - N/A   Clear
6:35 PM 82.4 °F 41.0 °F 23% 29.88 in 10.0 mi West 9.2 mph - N/A   Clear
6:55 PM 82.4 °F 42.8 °F 25% 29.88 in 10.0 mi North 5.8 mph - N/A   Clear
7:15 PM 82.4 °F 39.2 °F 21% 29.88 in 10.0 mi WNW 10.4 mph - N/A   Clear
7:36 PM 80.6 °F 37.4 °F 21% 29.89 in 10.0 mi WNW 9.2 mph - N/A   Clear
7:55 PM 80.6 °F 39.2 °F 23% 29.89 in 10.0 mi WNW 11.5 mph - N/A   Clear
8:15 PM 80.6 °F 39.2 °F 23% 29.89 in 10.0 mi WNW 8.1 mph - N/A   Clear
8:35 PM 78.8 °F 42.8 °F 28% 29.89 in 10.0 mi West 5.8 mph - N/A   Clear
8:55 PM 75.2 °F 44.6 °F 34% 29.90 in 10.0 mi West 5.8 mph - N/A   Clear
9:15 PM 75.2 °F 44.6 °F 34% 29.90 in 10.0 mi West 4.6 mph - N/A   Clear
9:35 PM 73.4 °F 46.4 °F 38% 29.91 in 10.0 mi West 3.5 mph - N/A   Clear
9:55 PM 71.6 °F 46.4 °F 41% 29.91 in 10.0 mi West 3.5 mph - N/A   Clear
10:15 PM 71.6 °F 46.4 °F 41% 29.92 in 10.0 mi West 3.5 mph - N/A   Clear
10:35 PM 71.6 °F 44.6 °F 38% 29.93 in 10.0 mi WSW 3.5 mph - N/A   Clear
10:55 PM 71.6 °F 44.6 °F 38% 29.93 in 7.0 mi SW 4.6 mph - N/A   Clear
11:15 PM 71.6 °F 44.6 °F 38% 29.93 in 10.0 mi SW 3.5 mph - N/A   Clear
11:35 PM 69.8 °F 44.6 °F 40% 29.93 in 10.0 mi WSW 4.6 mph - N/A   Clear
11:55 PM 69.8 °F 42.8 °F 38% 29.93 in 10.0 mi WSW 6.9 mph - N/A   Clear